UAL146 KEWR-EGLL

Flight info

Callsign UAL146
Flight time 2h 46m
Altitude 35000
Route MERIT DCT HFD DCT PUT DCT WITCH DCT ALLEX N431B ELSIR/M082F370 DCT 50N050W 52N040W 54N030W 56N020W DCT PIKIL DCT SOVED/N0473F390 DCT LUTOV DCT KELLY L10 WAL UY53 NUGRA
Aircraft B763/H-SDE3FGHIM3RWXY/LB1

Departure

Time 2026-04-26 06:45
Airport Newark Liberty International Airport (KEWR)

Arrival

Time 2026-04-26 09:31
Airport London Heathrow Airport (EGLL)
Time Latitude Longitude Altitude Speed Heading
2026-04-26 06:11 40.69879 -74.17776 30 ft 0 kts 270°
2026-04-26 06:33 40.69879 -74.17775 30 ft 2 kts 270°
2026-04-26 06:34 40.69878 -74.17742 30 ft 4 kts 280°
2026-04-26 06:34 40.69870 -74.17709 26 ft 4 kts 301°
2026-04-26 06:34 40.69855 -74.17691 28 ft 4 kts 344°
2026-04-26 06:34 40.69846 -74.17692 28 ft 1 kts 40°
2026-04-26 06:38 40.69852 -74.17685 27 ft 2 kts 40°
2026-04-26 06:38 40.69867 -74.17668 30 ft 4 kts 40°
2026-04-26 06:38 40.69889 -74.17643 30 ft 4 kts 46°
2026-04-26 06:38 40.69903 -74.17611 30 ft 4 kts 65°
2026-04-26 06:39 40.69909 -74.17583 30 ft 6 kts 73°
2026-04-26 06:39 40.69932 -74.17525 30 ft 8 kts 51°
2026-04-26 06:39 40.69958 -74.17464 30 ft 8 kts 81°
2026-04-26 06:39 40.69942 -74.17371 28 ft 13 kts 114°
2026-04-26 06:40 40.69879 -74.17251 30 ft 19 kts 131°
2026-04-26 06:40 40.69772 -74.17118 30 ft 23 kts 142°
2026-04-26 06:40 40.69625 -74.17018 30 ft 24 kts 161°
2026-04-26 06:40 40.69445 -74.16970 30 ft 28 kts 177°
2026-04-26 06:41 40.69275 -74.17003 29 ft 24 kts 200°
2026-04-26 06:41 40.69161 -74.17074 29 ft 12 kts 206°
2026-04-26 06:41 40.69079 -74.17127 29 ft 14 kts 206°
2026-04-26 06:41 40.68980 -74.17191 29 ft 17 kts 206°
2026-04-26 06:42 40.68870 -74.17262 30 ft 19 kts 206°
2026-04-26 06:42 40.68739 -74.17343 31 ft 22 kts 205°
2026-04-26 06:42 40.68589 -74.17438 31 ft 22 kts 205°
2026-04-26 06:42 40.68504 -74.17406 31 ft 11 kts 117°
2026-04-26 06:43 40.68463 -74.17290 31 ft 17 kts 115°
2026-04-26 06:43 40.68401 -74.17241 31 ft 10 kts 194°
2026-04-26 06:43 40.68313 -74.17292 30 ft 17 kts 205°
2026-04-26 06:43 40.68182 -74.17374 29 ft 24 kts 205°
2026-04-26 06:44 40.68074 -74.17441 29 ft 27 kts 205°
2026-04-26 06:44 40.67856 -74.17571 29 ft 16 kts 177°
2026-04-26 06:44 40.67797 -74.17484 28 ft 15 kts 116°
2026-04-26 06:44 40.67815 -74.17395 28 ft 12 kts 40°
2026-04-26 06:45 40.67933 -74.17311 28 ft 39 kts 26°
2026-04-26 06:45 40.68218 -74.17129 29 ft 101 kts 26°
2026-04-26 06:45 40.69534 -74.16290 213 ft 206 kts 26°
2026-04-26 06:45 40.70918 -74.15468 1403 ft 221 kts 27°
2026-04-26 06:46 40.72240 -74.14392 1942 ft 232 kts 40°
2026-04-26 06:46 40.73404 -74.12970 2172 ft 229 kts 50°
2026-04-26 06:46 40.74487 -74.11427 2428 ft 230 kts 47°
2026-04-26 06:46 40.75675 -74.09994 3067 ft 231 kts 44°
2026-04-26 06:47 40.76960 -74.08675 4042 ft 241 kts 33°
2026-04-26 06:47 40.78460 -74.07594 5056 ft 251 kts 29°
2026-04-26 06:47 40.80028 -74.06511 6074 ft 258 kts 27°
2026-04-26 06:47 40.81630 -74.05354 7089 ft 265 kts 27°
2026-04-26 06:48 40.82722 -74.04543 7786 ft 268 kts 27°
2026-04-26 06:48 40.84366 -74.03308 8770 ft 275 kts 27°
2026-04-26 06:48 40.86039 -74.02037 9757 ft 281 kts 27°
2026-04-26 06:48 40.87736 -74.00733 10478 ft 295 kts 27°
2026-04-26 06:49 40.89576 -73.99321 11005 ft 315 kts 28°
2026-04-26 06:49 40.91518 -73.97844 11692 ft 329 kts 27°
2026-04-26 06:49 40.93542 -73.96307 12397 ft 340 kts 27°
2026-04-26 06:49 40.95610 -73.94736 13285 ft 345 kts 27°
2026-04-26 06:50 40.97710 -73.93137 14127 ft 351 kts 27°
2026-04-26 06:50 40.99839 -73.91507 14871 ft 356 kts 29°
2026-04-26 06:50 41.01725 -73.89329 15568 ft 366 kts 51°
2026-04-26 06:50 41.03172 -73.86525 16281 ft 372 kts 57°
2026-04-26 06:51 41.04527 -73.83571 16998 ft 378 kts 59°
2026-04-26 06:51 41.07206 -73.77462 18334 ft 390 kts 59°
2026-04-26 06:51 41.08564 -73.74323 18949 ft 395 kts 59°
2026-04-26 06:52 41.09935 -73.71153 19546 ft 399 kts 59°
2026-04-26 06:52 41.11324 -73.67940 20106 ft 404 kts 59°
2026-04-26 06:52 41.12728 -73.64692 20681 ft 408 kts 59°
2026-04-26 06:52 41.14148 -73.61413 21247 ft 413 kts 59°
2026-04-26 06:53 41.15596 -73.58075 21834 ft 418 kts 59°
2026-04-26 06:53 41.18541 -73.51304 22981 ft 428 kts 59°
2026-04-26 06:53 41.21555 -73.44400 24095 ft 435 kts 59°
2026-04-26 06:53 41.24623 -73.37369 24933 ft 443 kts 59°
2026-04-26 06:54 41.27724 -73.30215 25792 ft 452 kts 59°
2026-04-26 06:54 41.30889 -73.22891 26599 ft 461 kts 59°
2026-04-26 06:54 41.34103 -73.15414 27410 ft 470 kts 59°
2026-04-26 06:54 41.37358 -73.07773 28260 ft 478 kts 59°
2026-04-26 06:55 41.40636 -72.99988 29048 ft 485 kts 59°
2026-04-26 06:55 41.43941 -72.92069 29764 ft 494 kts 59°
2026-04-26 06:55 41.47275 -72.83986 30499 ft 501 kts 59°
2026-04-26 06:55 41.50650 -72.75781 31279 ft 508 kts 59°
2026-04-26 06:56 41.54078 -72.67467 32067 ft 515 kts 59°
2026-04-26 06:56 41.57558 -72.59058 32851 ft 521 kts 59°
2026-04-26 06:56 41.61105 -72.50522 33649 ft 527 kts 59°
2026-04-26 06:56 41.64678 -72.41925 34390 ft 533 kts 59°
2026-04-26 06:57 41.68253 -72.33303 34968 ft 523 kts 58°
2026-04-26 06:57 41.71830 -72.24667 35116 ft 536 kts 58°
2026-04-26 06:57 41.78952 -72.07400 35142 ft 533 kts 58°
2026-04-26 06:58 41.86148 -71.89973 35138 ft 533 kts 58°
2026-04-26 06:58 41.93290 -71.72544 35136 ft 534 kts 58°
2026-04-26 06:59 42.00481 -71.55022 35139 ft 536 kts 58°
2026-04-26 06:59 42.07593 -71.37488 35141 ft 534 kts 58°
2026-04-26 07:00 42.13871 -71.23174 35174 ft 533 kts 46°
2026-04-26 07:00 42.34172 -70.93383 35132 ft 539 kts 42°
2026-04-26 07:01 42.54597 -70.63682 35129 ft 538 kts 42°
2026-04-26 07:01 42.74813 -70.34145 35146 ft 536 kts 41°
2026-04-26 07:02 42.95066 -70.04678 35147 ft 529 kts 41°
2026-04-26 07:02 43.15169 -69.75343 35140 ft 524 kts 41°
2026-04-26 07:03 43.26235 -69.63205 35186 ft 496 kts 11°
2026-04-26 07:03 43.39030 -69.56185 35146 ft 518 kts 36°
2026-04-26 07:04 43.43213 -69.47933 35185 ft 539 kts 64°
2026-04-26 07:04 43.45806 -69.38213 35134 ft 542 kts 69°
2026-04-26 07:04 43.49412 -69.23462 35129 ft 538 kts 68°
2026-04-26 07:05 43.50783 -69.19230 35125 ft 530 kts 54°
2026-04-26 07:05 43.52996 -69.15254 35148 ft 519 kts 38°
2026-04-26 07:05 43.58190 -69.08419 35159 ft 529 kts 51°
2026-04-26 07:06 43.61620 -68.99329 35164 ft 536 kts 62°
2026-04-26 07:06 43.64630 -68.89933 35124 ft 534 kts 63°
2026-04-26 07:06 43.70548 -68.71063 35126 ft 536 kts 63°
2026-04-26 07:07 43.76391 -68.52139 35132 ft 534 kts 63°
2026-04-26 07:07 43.82172 -68.33281 35127 ft 535 kts 63°
2026-04-26 07:08 43.88292 -68.13312 35135 ft 533 kts 63°
2026-04-26 07:08 43.91915 -68.04545 35145 ft 520 kts 47°
2026-04-26 07:09 43.97504 -67.94457 35138 ft 532 kts 46°
2026-04-26 07:09 44.05701 -67.77319 35120 ft 531 kts 51°
2026-04-26 07:11 44.25802 -67.34357 35103 ft 527 kts 51°
2026-04-26 07:11 44.33699 -67.17310 35116 ft 523 kts 51°
2026-04-26 07:12 44.41613 -67.00220 35110 ft 523 kts 52°
2026-04-26 07:12 44.49196 -66.82924 35110 ft 526 kts 52°
2026-04-26 07:13 44.56845 -66.65476 35107 ft 521 kts 52°
2026-04-26 07:13 44.64418 -66.48097 35099 ft 523 kts 52°
2026-04-26 07:14 44.71976 -66.30645 35092 ft 521 kts 52°
2026-04-26 07:14 44.81616 -66.08225 35105 ft 522 kts 52°
2026-04-26 07:15 44.96474 -65.73322 35132 ft 519 kts 53°
2026-04-26 07:15 45.11129 -65.38468 35120 ft 516 kts 52°
2026-04-26 07:16 45.25696 -65.03391 35102 ft 512 kts 53°
2026-04-26 07:16 45.40052 -64.68386 35085 ft 504 kts 54°
2026-04-26 07:17 45.54101 -64.33699 35073 ft 501 kts 54°
2026-04-26 07:17 45.67973 -63.99024 35077 ft 499 kts 55°
2026-04-26 07:18 45.81706 -63.64262 35071 ft 501 kts 55°
2026-04-26 07:18 45.95186 -63.29705 35064 ft 495 kts 56°
2026-04-26 07:19 46.08629 -62.94802 35061 ft 491 kts 57°
2026-04-26 07:19 46.21558 -62.60809 35044 ft 489 kts 57°
2026-04-26 07:20 46.34545 -62.26225 35026 ft 487 kts 58°
2026-04-26 07:20 46.47334 -61.91735 35007 ft 478 kts 57°
2026-04-26 07:21 46.59906 -61.57392 34971 ft 481 kts 58°
2026-04-26 07:21 46.72352 -61.22955 34975 ft 480 kts 59°
2026-04-26 07:22 46.84753 -60.88198 34968 ft 483 kts 59°
2026-04-26 07:22 46.97037 -60.53308 34974 ft 482 kts 60°
2026-04-26 07:23 47.09136 -60.18476 34933 ft 478 kts 60°
2026-04-26 07:23 47.21122 -59.83516 34910 ft 478 kts 60°
2026-04-26 07:24 47.32896 -59.48713 34877 ft 478 kts 62°
2026-04-26 07:24 47.44717 -59.13295 34857 ft 481 kts 62°
2026-04-26 07:25 47.56451 -58.77646 34836 ft 482 kts 62°
2026-04-26 07:25 47.67996 -58.42079 34813 ft 477 kts 61°
2026-04-26 07:26 47.79358 -58.06584 34789 ft 474 kts 61°
2026-04-26 07:26 47.90630 -57.70872 34768 ft 479 kts 62°
2026-04-26 07:27 48.01848 -57.34820 34754 ft 477 kts 62°
2026-04-26 07:27 48.12928 -56.98694 34708 ft 474 kts 62°
2026-04-26 07:28 48.23852 -56.62546 34668 ft 476 kts 62°
2026-04-26 07:28 48.34677 -56.26200 34656 ft 478 kts 63°
2026-04-26 07:29 48.45382 -55.89717 34642 ft 477 kts 63°
2026-04-26 07:29 48.56011 -55.52941 34623 ft 477 kts 63°
2026-04-26 07:30 48.66555 -55.15899 34613 ft 480 kts 63°
2026-04-26 07:30 48.76931 -54.78874 34582 ft 481 kts 63°
2026-04-26 07:31 48.87300 -54.41285 34585 ft 484 kts 64°
2026-04-26 07:31 48.97590 -54.03383 34555 ft 484 kts 64°
2026-04-26 07:32 49.07769 -53.65273 34565 ft 489 kts 64°
2026-04-26 07:32 49.17864 -53.26842 34554 ft 489 kts 65°
2026-04-26 07:33 49.27860 -52.88150 34541 ft 488 kts 65°
2026-04-26 07:33 49.37774 -52.49105 34514 ft 491 kts 65°
2026-04-26 07:34 49.47568 -52.09855 34496 ft 492 kts 66°
2026-04-26 07:34 49.55922 -51.77219 34485 ft 497 kts 66°
2026-04-26 07:35 49.67650 -51.31420 34476 ft 493 kts 66°
2026-04-26 07:35 49.75940 -50.98476 34470 ft 492 kts 66°
2026-04-26 07:36 49.85789 -50.58692 34457 ft 494 kts 68°
2026-04-26 07:36 49.95511 -50.18711 34454 ft 495 kts 68°
2026-04-26 07:37 50.05364 -49.78696 34446 ft 495 kts 68°
2026-04-26 07:37 50.15282 -49.38744 34436 ft 494 kts 68°
2026-04-26 07:38 50.25050 -48.98685 34427 ft 493 kts 68°
2026-04-26 07:38 50.34692 -48.58416 34428 ft 495 kts 69°
2026-04-26 07:39 50.44223 -48.17852 34418 ft 495 kts 69°
2026-04-26 07:39 50.53598 -47.77189 34415 ft 495 kts 70°
2026-04-26 07:40 50.62844 -47.36312 34418 ft 495 kts 71°
2026-04-26 07:40 50.71889 -46.95537 34421 ft 494 kts 71°
2026-04-26 07:41 50.80835 -46.54394 34418 ft 499 kts 72°
2026-04-26 07:41 50.89688 -46.12859 34414 ft 497 kts 72°
2026-04-26 07:42 50.98386 -45.71196 34421 ft 497 kts 73°
2026-04-26 07:42 51.06998 -45.29071 34419 ft 500 kts 74°
2026-04-26 07:43 51.15452 -44.86812 34431 ft 500 kts 74°
2026-04-26 07:43 51.23740 -44.44472 34438 ft 501 kts 75°
2026-04-26 07:44 51.31932 -44.01678 34436 ft 504 kts 75°
2026-04-26 07:44 51.39900 -43.59099 34453 ft 502 kts 76°
2026-04-26 07:45 51.47779 -43.16001 34456 ft 508 kts 77°
2026-04-26 07:45 51.55528 -42.72605 34478 ft 506 kts 77°
2026-04-26 07:46 51.63119 -42.29050 34473 ft 504 kts 78°
2026-04-26 07:46 51.70550 -41.85326 34487 ft 506 kts 78°
2026-04-26 07:47 51.77813 -41.41498 34496 ft 505 kts 79°
2026-04-26 07:47 51.84887 -40.97693 34511 ft 504 kts 79°
2026-04-26 07:48 51.91843 -40.53459 34520 ft 508 kts 80°
2026-04-26 07:48 51.98640 -40.09036 34533 ft 508 kts 81°
2026-04-26 07:49 52.08597 -39.65750 34536 ft 513 kts 72°
2026-04-26 07:49 52.19220 -39.22684 34545 ft 516 kts 73°
2026-04-26 07:50 52.35027 -38.56997 34565 ft 517 kts 74°
2026-04-26 07:50 52.45375 -38.12886 34568 ft 517 kts 75°
2026-04-26 07:51 52.55548 -37.68616 34580 ft 517 kts 76°
2026-04-26 07:51 52.65550 -37.24160 34588 ft 518 kts 76°
2026-04-26 07:52 52.75341 -36.79710 34598 ft 518 kts 77°
2026-04-26 07:52 52.85032 -36.34741 34602 ft 519 kts 78°
2026-04-26 07:53 52.94569 -35.89498 34623 ft 520 kts 78°
2026-04-26 07:53 53.03930 -35.44069 34622 ft 520 kts 78°
2026-04-26 07:54 53.13185 -34.98104 34637 ft 526 kts 78°
2026-04-26 07:54 53.22303 -34.51737 34650 ft 527 kts 78°
2026-04-26 07:55 53.31250 -34.05122 34677 ft 528 kts 79°
2026-04-26 07:55 53.40002 -33.58384 34692 ft 533 kts 79°
2026-04-26 07:56 53.48654 -33.10973 34716 ft 532 kts 79°
2026-04-26 07:56 53.57214 -32.62860 34733 ft 540 kts 79°
2026-04-26 07:57 53.65614 -32.14317 34774 ft 544 kts 79°
2026-04-26 07:57 53.73858 -31.65355 34818 ft 546 kts 79°
2026-04-26 07:58 53.81948 -31.15909 34833 ft 549 kts 79°
2026-04-26 07:58 53.89868 -30.66062 34869 ft 546 kts 78°
2026-04-26 07:59 53.97556 -30.16183 34910 ft 550 kts 78°
2026-04-26 07:59 54.08219 -29.67249 34925 ft 548 kts 68°
2026-04-26 08:00 54.20073 -29.19160 34961 ft 547 kts 68°
2026-04-26 08:00 54.31603 -28.71340 34979 ft 540 kts 67°
2026-04-26 08:01 54.42986 -28.23055 35010 ft 543 kts 68°
2026-04-26 08:01 54.54031 -27.75155 35016 ft 537 kts 68°
2026-04-26 08:02 54.64894 -27.26948 35041 ft 537 kts 68°
2026-04-26 08:02 54.75524 -26.78675 35057 ft 536 kts 68°
2026-04-26 08:03 54.85969 -26.30113 35069 ft 536 kts 68°
2026-04-26 08:03 54.96212 -25.81337 35077 ft 537 kts 68°
2026-04-26 08:04 55.06284 -25.32185 35090 ft 538 kts 68°
2026-04-26 08:04 55.16134 -24.82914 35098 ft 537 kts 68°
2026-04-26 08:05 55.25813 -24.33249 35105 ft 538 kts 69°
2026-04-26 08:05 55.35278 -23.83403 35110 ft 539 kts 69°
2026-04-26 08:06 55.44480 -23.33644 35096 ft 538 kts 70°
2026-04-26 08:06 55.53545 -22.83288 35100 ft 538 kts 70°
2026-04-26 08:07 55.62393 -22.32757 35116 ft 538 kts 71°
2026-04-26 08:07 55.71035 -21.81985 35102 ft 538 kts 71°
2026-04-26 08:08 55.79469 -21.30972 35101 ft 538 kts 72°
2026-04-26 08:08 55.87697 -20.79704 35103 ft 540 kts 72°
2026-04-26 08:09 55.95727 -20.28121 35100 ft 540 kts 73°
2026-04-26 08:09 56.00483 -19.75249 35105 ft 543 kts 88°
2026-04-26 08:10 56.01338 -19.21571 35106 ft 543 kts 88°
2026-04-26 08:10 56.01970 -18.67536 35103 ft 544 kts 89°
2026-04-26 08:11 56.02366 -18.13371 35098 ft 542 kts 89°
2026-04-26 08:11 56.02526 -17.59267 35111 ft 544 kts 90°
2026-04-26 08:12 56.02448 -17.05218 35116 ft 544 kts 90°
2026-04-26 08:12 56.02133 -16.51119 35122 ft 545 kts 91°
2026-04-26 08:13 56.01584 -15.97109 35133 ft 543 kts 92°
2026-04-26 08:13 56.00798 -15.43121 35130 ft 542 kts 92°
2026-04-26 08:14 56.00044 -14.89237 35142 ft 542 kts 90°
2026-04-26 08:14 56.00092 -14.35214 35124 ft 542 kts 91°
2026-04-26 08:15 55.97071 -13.82933 35163 ft 531 kts 109°
2026-04-26 08:15 55.88322 -13.32772 35167 ft 529 kts 110°
2026-04-26 08:16 55.79435 -12.83221 35179 ft 522 kts 111°
2026-04-26 08:16 55.70389 -12.34119 35187 ft 521 kts 112°
2026-04-26 08:17 55.61247 -11.85756 35203 ft 520 kts 112°
2026-04-26 08:17 55.51876 -11.37425 35211 ft 519 kts 112°
2026-04-26 08:18 55.42338 -10.89432 35219 ft 519 kts 112°
2026-04-26 08:18 55.32607 -10.41646 35210 ft 515 kts 113°
2026-04-26 08:19 55.23946 -10.00146 35237 ft 515 kts 113°
2026-04-26 08:19 55.21520 -9.88318 35660 ft 510 kts 113°
2026-04-26 08:20 55.20715 -9.84462 36128 ft 506 kts 113°
2026-04-26 08:20 55.19513 -9.78686 36696 ft 504 kts 113°
2026-04-26 08:20 55.18311 -9.72926 37212 ft 503 kts 113°
2026-04-26 08:20 55.17102 -9.67159 37696 ft 503 kts 113°
2026-04-26 08:21 55.15899 -9.61430 38177 ft 502 kts 113°
2026-04-26 08:21 55.14708 -9.55773 38646 ft 502 kts 113°
2026-04-26 08:21 55.13502 -9.50070 38972 ft 500 kts 113°
2026-04-26 08:21 55.12295 -9.44365 39111 ft 504 kts 113°
2026-04-26 08:22 55.09832 -9.32789 39193 ft 508 kts 113°
2026-04-26 08:22 55.07363 -9.21247 39232 ft 506 kts 113°
2026-04-26 08:23 55.04891 -9.09761 39243 ft 506 kts 113°
2026-04-26 08:23 55.02402 -8.98256 39246 ft 507 kts 113°
2026-04-26 08:24 54.99901 -8.86761 39245 ft 506 kts 114°
2026-04-26 08:24 54.97409 -8.75370 39237 ft 506 kts 114°
2026-04-26 08:25 54.94891 -8.63927 39229 ft 507 kts 114°
2026-04-26 08:25 54.92363 -8.52493 39236 ft 506 kts 114°
2026-04-26 08:26 54.89823 -8.41080 39267 ft 506 kts 114°
2026-04-26 08:26 54.87277 -8.29695 39261 ft 506 kts 114°
2026-04-26 08:27 54.84720 -8.18320 39248 ft 506 kts 114°
2026-04-26 08:27 54.82146 -8.06940 39238 ft 506 kts 114°
2026-04-26 08:28 54.79564 -7.95578 39234 ft 506 kts 114°
2026-04-26 08:28 54.76993 -7.84329 39234 ft 505 kts 114°
2026-04-26 08:29 54.74392 -7.73007 39230 ft 505 kts 114°
2026-04-26 08:29 54.71789 -7.61736 39238 ft 504 kts 114°
2026-04-26 08:30 54.69175 -7.50480 39235 ft 504 kts 114°
2026-04-26 08:30 54.66548 -7.39226 39244 ft 505 kts 115°
2026-04-26 08:31 54.63910 -7.27985 39243 ft 505 kts 115°
2026-04-26 08:31 54.61261 -7.16755 39238 ft 504 kts 115°
2026-04-26 08:32 54.58622 -7.05623 39244 ft 504 kts 115°
2026-04-26 08:32 54.55953 -6.94429 39241 ft 505 kts 115°
2026-04-26 08:33 54.53277 -6.83256 39243 ft 504 kts 115°
2026-04-26 08:33 54.50591 -6.72103 39246 ft 504 kts 115°
2026-04-26 08:34 54.47896 -6.60969 39251 ft 504 kts 115°
2026-04-26 08:34 54.45184 -6.49824 39254 ft 505 kts 115°
2026-04-26 08:35 54.42468 -6.38718 39248 ft 503 kts 115°
2026-04-26 08:35 54.39752 -6.27666 39255 ft 502 kts 115°
2026-04-26 08:36 54.37020 -6.16606 39264 ft 504 kts 115°
2026-04-26 08:36 54.34291 -6.05613 39255 ft 504 kts 115°
2026-04-26 08:37 54.31542 -5.94594 39264 ft 502 kts 115°
2026-04-26 08:37 54.28784 -5.83598 39259 ft 503 kts 116°
2026-04-26 08:38 54.26060 -5.72785 39265 ft 504 kts 116°
2026-04-26 08:38 54.23276 -5.61790 39260 ft 503 kts 116°
2026-04-26 08:39 54.20490 -5.50845 39257 ft 502 kts 116°
2026-04-26 08:39 54.17690 -5.39896 39259 ft 503 kts 116°
2026-04-26 08:40 54.14876 -5.28946 39254 ft 503 kts 116°
2026-04-26 08:40 54.12062 -5.18043 39248 ft 501 kts 116°
2026-04-26 08:41 54.09237 -5.07160 39256 ft 502 kts 116°
2026-04-26 08:41 54.06398 -4.96274 39260 ft 503 kts 116°
2026-04-26 08:42 54.03550 -4.85401 39260 ft 502 kts 116°
2026-04-26 08:42 54.00714 -4.74632 39263 ft 502 kts 116°
2026-04-26 08:43 53.97852 -4.63809 39265 ft 503 kts 116°
2026-04-26 08:43 53.94974 -4.52982 39265 ft 502 kts 117°
2026-04-26 08:44 53.92092 -4.42199 39262 ft 501 kts 117°
2026-04-26 08:44 53.88737 -4.31904 39278 ft 496 kts 129°
2026-04-26 08:45 53.84772 -4.22256 39270 ft 499 kts 128°
2026-04-26 08:45 53.80830 -4.12690 39274 ft 498 kts 128°
2026-04-26 08:46 53.76865 -4.03060 39257 ft 499 kts 128°
2026-04-26 08:46 53.72885 -3.93440 39277 ft 500 kts 128°
2026-04-26 08:47 53.68894 -3.83830 39270 ft 499 kts 128°
2026-04-26 08:47 53.64902 -3.74254 39270 ft 499 kts 128°
2026-04-26 08:48 53.60891 -3.64670 39278 ft 501 kts 128°
2026-04-26 08:48 53.56869 -3.55094 39270 ft 501 kts 128°
2026-04-26 08:49 53.52841 -3.45544 39275 ft 501 kts 128°
2026-04-26 08:49 53.48827 -3.36059 39282 ft 501 kts 128°
2026-04-26 08:50 53.44777 -3.26528 39282 ft 501 kts 128°
2026-04-26 08:50 53.40750 -3.17013 39310 ft 500 kts 127°
2026-04-26 08:51 53.34538 -3.02956 39322 ft 502 kts 129°
2026-04-26 08:52 53.30355 -2.93579 39319 ft 503 kts 129°
2026-04-26 08:52 53.26172 -2.84232 39318 ft 501 kts 129°
2026-04-26 08:53 53.21991 -2.74924 39310 ft 501 kts 129°
2026-04-26 08:53 53.17793 -2.65588 39317 ft 503 kts 129°
2026-04-26 08:54 53.13550 -2.56339 39264 ft 504 kts 127°
2026-04-26 08:54 53.11607 -2.51457 39026 ft 503 kts 126°
2026-04-26 08:54 53.09690 -2.46768 38750 ft 490 kts 127°
2026-04-26 08:54 53.07804 -2.42188 38448 ft 479 kts 126°
2026-04-26 08:55 53.05904 -2.37541 37927 ft 472 kts 126°
2026-04-26 08:55 53.03931 -2.33239 37431 ft 462 kts 137°
2026-04-26 08:55 53.01608 -2.29716 36993 ft 454 kts 143°
2026-04-26 08:55 52.99175 -2.26447 36523 ft 448 kts 147°
2026-04-26 08:56 52.96588 -2.23647 36057 ft 441 kts 152°
2026-04-26 08:56 52.94825 -2.21839 35715 ft 443 kts 152°
2026-04-26 08:56 52.91329 -2.18164 35022 ft 450 kts 151°
2026-04-26 08:56 52.88696 -2.15405 34494 ft 448 kts 152°
2026-04-26 08:57 52.86061 -2.12662 33894 ft 443 kts 152°
2026-04-26 08:57 52.83473 -2.09964 33289 ft 437 kts 152°
2026-04-26 08:57 52.80915 -2.07299 32715 ft 431 kts 152°
2026-04-26 08:57 52.78391 -2.04676 32118 ft 425 kts 152°
2026-04-26 08:58 52.75906 -2.02096 31560 ft 419 kts 152°
2026-04-26 08:58 52.73445 -1.99553 31012 ft 435 kts 152°
2026-04-26 08:58 52.70791 -1.96804 30511 ft 449 kts 151°
2026-04-26 08:58 52.68286 -1.94197 29857 ft 444 kts 151°
2026-04-26 08:59 52.65683 -1.91513 29153 ft 437 kts 152°
2026-04-26 08:59 52.63130 -1.88887 28464 ft 430 kts 151°
2026-04-26 08:59 52.60616 -1.86296 27798 ft 423 kts 151°
2026-04-26 08:59 52.58174 -1.83785 27165 ft 416 kts 151°
2026-04-26 09:00 52.55738 -1.81284 26518 ft 409 kts 151°
2026-04-26 09:00 52.53314 -1.78798 25888 ft 402 kts 151°
2026-04-26 09:00 52.50982 -1.76410 25274 ft 399 kts 151°
2026-04-26 09:00 52.48610 -1.73985 24681 ft 395 kts 151°
2026-04-26 09:01 52.46278 -1.71601 24112 ft 393 kts 151°
2026-04-26 09:01 52.44000 -1.69276 23471 ft 390 kts 151°
2026-04-26 09:01 52.41701 -1.66932 22796 ft 387 kts 151°
2026-04-26 09:01 52.39428 -1.64619 22131 ft 381 kts 151°
2026-04-26 09:02 52.37195 -1.62349 21478 ft 375 kts 151°
2026-04-26 09:02 52.34994 -1.60114 20868 ft 369 kts 151°
2026-04-26 09:02 52.32845 -1.57934 20574 ft 358 kts 151°
2026-04-26 09:02 52.30733 -1.55796 20455 ft 359 kts 151°
2026-04-26 09:03 52.28587 -1.53629 20322 ft 367 kts 151°
2026-04-26 09:03 52.26409 -1.51425 20066 ft 368 kts 150°
2026-04-26 09:03 52.24259 -1.49212 19811 ft 363 kts 149°
2026-04-26 09:03 52.22168 -1.46930 19548 ft 361 kts 148°
2026-04-26 09:04 52.20125 -1.44537 19295 ft 362 kts 143°
2026-04-26 09:04 52.18220 -1.41859 19055 ft 361 kts 141°
2026-04-26 09:04 52.16362 -1.39206 18809 ft 358 kts 141°
2026-04-26 09:04 52.14474 -1.36576 18550 ft 356 kts 142°
2026-04-26 09:05 52.12592 -1.33970 18258 ft 354 kts 142°
2026-04-26 09:05 52.10719 -1.31361 17984 ft 354 kts 141°
2026-04-26 09:05 52.08857 -1.28765 17705 ft 352 kts 142°
2026-04-26 09:05 52.06996 -1.26180 17422 ft 350 kts 142°
2026-04-26 09:06 52.05152 -1.23623 17142 ft 348 kts 142°
2026-04-26 09:06 52.03929 -1.21929 16962 ft 347 kts 142°
2026-04-26 09:06 52.02097 -1.19393 16670 ft 346 kts 142°
2026-04-26 09:06 52.00267 -1.16860 16396 ft 345 kts 142°
2026-04-26 09:07 51.98442 -1.14339 16077 ft 344 kts 142°
2026-04-26 09:07 51.96660 -1.11878 15752 ft 328 kts 142°
2026-04-26 09:07 51.94964 -1.09536 15511 ft 312 kts 142°
2026-04-26 09:07 51.93348 -1.07309 15347 ft 298 kts 142°
2026-04-26 09:08 51.91772 -1.05144 15333 ft 298 kts 142°
2026-04-26 09:08 51.90178 -1.02956 15335 ft 302 kts 142°
2026-04-26 09:08 51.88564 -1.00770 15331 ft 301 kts 145°
2026-04-26 09:08 51.86849 -0.98839 15111 ft 305 kts 154°
2026-04-26 09:09 51.84892 -0.97643 14624 ft 297 kts 167°
2026-04-26 09:09 51.82910 -0.96829 14125 ft 291 kts 169°
2026-04-26 09:09 51.80949 -0.96115 13572 ft 287 kts 170°
2026-04-26 09:09 51.79027 -0.95461 13256 ft 275 kts 171°
2026-04-26 09:10 51.77180 -0.94848 12824 ft 269 kts 171°
2026-04-26 09:10 51.75351 -0.94242 12351 ft 267 kts 171°
2026-04-26 09:10 51.73542 -0.93640 11869 ft 264 kts 171°
2026-04-26 09:10 51.71748 -0.93046 11393 ft 263 kts 171°
2026-04-26 09:11 51.69960 -0.92478 10909 ft 261 kts 170°
2026-04-26 09:11 51.68172 -0.91935 10434 ft 260 kts 171°
2026-04-26 09:11 51.66402 -0.91411 9964 ft 257 kts 171°
2026-04-26 09:11 51.64643 -0.90897 9465 ft 256 kts 170°
2026-04-26 09:12 51.62888 -0.90399 8953 ft 255 kts 171°
2026-04-26 09:12 51.61154 -0.89919 8577 ft 250 kts 171°
2026-04-26 09:12 51.59451 -0.89451 8220 ft 244 kts 171°
2026-04-26 09:12 51.57806 -0.89001 7985 ft 240 kts 171°
2026-04-26 09:13 51.56179 -0.88563 7659 ft 237 kts 171°
2026-04-26 09:13 51.54575 -0.88135 7384 ft 231 kts 171°
2026-04-26 09:13 51.52994 -0.87719 7031 ft 229 kts 171°
2026-04-26 09:13 51.51459 -0.87320 6782 ft 223 kts 171°
2026-04-26 09:14 51.49937 -0.86927 6487 ft 219 kts 171°
2026-04-26 09:14 51.48458 -0.86426 6129 ft 217 kts 153°
2026-04-26 09:14 51.47296 -0.84957 5830 ft 212 kts 132°
2026-04-26 09:14 51.46421 -0.83038 5175 ft 223 kts 110°
2026-04-26 09:15 51.46272 -0.80511 4526 ft 234 kts 83°
2026-04-26 09:15 51.46544 -0.77923 4002 ft 235 kts 80°
2026-04-26 09:15 51.46839 -0.75355 3586 ft 233 kts 81°
2026-04-26 09:15 51.47105 -0.72813 3163 ft 230 kts 83°
2026-04-26 09:16 51.47253 -0.70279 2769 ft 226 kts 85°
2026-04-26 09:16 51.47429 -0.67810 2455 ft 219 kts 84°
2026-04-26 09:16 51.47617 -0.65442 2200 ft 208 kts 85°
2026-04-26 09:16 51.47747 -0.63250 1981 ft 191 kts 89°
2026-04-26 09:17 51.47771 -0.61200 1762 ft 177 kts 92°
2026-04-26 09:17 51.47751 -0.59288 1510 ft 165 kts 93°
2026-04-26 09:17 51.47724 -0.57525 1267 ft 152 kts 93°
2026-04-26 09:17 51.47707 -0.55911 998 ft 139 kts 90°
2026-04-26 09:18 51.47704 -0.54454 873 ft 127 kts 91°
2026-04-26 09:18 51.47711 -0.53017 703 ft 129 kts 89°
2026-04-26 09:18 51.47726 -0.51549 485 ft 131 kts 89°
2026-04-26 09:18 51.47744 -0.50109 307 ft 131 kts 89°
2026-04-26 09:19 51.47757 -0.48721 329 ft 126 kts 89°
2026-04-26 09:19 51.47767 -0.47242 484 ft 145 kts 90°
2026-04-26 09:19 51.47768 -0.45591 839 ft 156 kts 88°
2026-04-26 09:19 51.47967 -0.43747 1602 ft 178 kts 75°
2026-04-26 09:20 51.48626 -0.41962 1998 ft 194 kts 48°
2026-04-26 09:20 51.49827 -0.40879 2056 ft 208 kts 13°
2026-04-26 09:20 51.51352 -0.40693 2094 ft 231 kts
2026-04-26 09:20 51.52896 -0.40674 2519 ft 219 kts
2026-04-26 09:21 51.54362 -0.40722 2959 ft 225 kts
2026-04-26 09:21 51.55903 -0.40809 3395 ft 223 kts
2026-04-26 09:21 51.57421 -0.41394 3718 ft 231 kts 330°
2026-04-26 09:21 51.58543 -0.43227 3907 ft 234 kts 296°
2026-04-26 09:22 51.58960 -0.45735 3984 ft 234 kts 275°
2026-04-26 09:22 51.59120 -0.48334 4001 ft 233 kts 272°
2026-04-26 09:22 51.59218 -0.50919 3976 ft 230 kts 271°
2026-04-26 09:22 51.59292 -0.53491 3967 ft 233 kts 271°
2026-04-26 09:23 51.59357 -0.56084 3963 ft 230 kts 271°
2026-04-26 09:23 51.59419 -0.58685 3957 ft 233 kts 271°
2026-04-26 09:23 51.59479 -0.61281 3953 ft 233 kts 271°
2026-04-26 09:23 51.59533 -0.63875 3958 ft 230 kts 271°
2026-04-26 09:24 51.59525 -0.66429 3925 ft 230 kts 256°
2026-04-26 09:24 51.58934 -0.68801 3978 ft 228 kts 239°
2026-04-26 09:24 51.58157 -0.71019 3989 ft 226 kts 238°
2026-04-26 09:24 51.57348 -0.73179 3971 ft 227 kts 237°
2026-04-26 09:25 51.56524 -0.75350 3970 ft 228 kts 236°
2026-04-26 09:25 51.55696 -0.77518 3961 ft 224 kts 236°
2026-04-26 09:25 51.54916 -0.79573 3937 ft 215 kts 234°
2026-04-26 09:25 51.53844 -0.81170 3940 ft 212 kts 198°
2026-04-26 09:26 51.52443 -0.81700 3995 ft 202 kts 185°
2026-04-26 09:26 51.51088 -0.81983 3947 ft 195 kts 183°
2026-04-26 09:26 51.49727 -0.81900 3740 ft 196 kts 155°
2026-04-26 09:26 51.48667 -0.80640 3513 ft 191 kts 129°
2026-04-26 09:27 51.48132 -0.78747 3220 ft 186 kts 99°
2026-04-26 09:27 51.47958 -0.76718 3063 ft 182 kts 97°
2026-04-26 09:27 51.47835 -0.74684 3072 ft 186 kts 95°
2026-04-26 09:27 51.47731 -0.72608 3056 ft 185 kts 95°
2026-04-26 09:28 51.47635 -0.70513 2829 ft 191 kts 94°
2026-04-26 09:28 51.47589 -0.68449 2541 ft 177 kts 91°
2026-04-26 09:28 51.47611 -0.66553 2333 ft 166 kts 90°
2026-04-26 09:28 51.47657 -0.64688 2109 ft 169 kts 90°
2026-04-26 09:29 51.47696 -0.62802 1902 ft 168 kts 90°
2026-04-26 09:29 51.47715 -0.60955 1648 ft 160 kts 91°
2026-04-26 09:29 51.47724 -0.59239 1443 ft 152 kts 91°
2026-04-26 09:29 51.47722 -0.57542 1254 ft 150 kts 91°
2026-04-26 09:30 51.47717 -0.55872 1015 ft 152 kts 91°
2026-04-26 09:30 51.47716 -0.54230 812 ft 141 kts 89°
2026-04-26 09:30 51.47719 -0.52681 639 ft 135 kts 89°
2026-04-26 09:30 51.47729 -0.51157 484 ft 135 kts 89°
2026-04-26 09:31 51.47736 -0.49688 279 ft 133 kts 88°
2026-04-26 09:31 51.47749 -0.48147 119 ft 130 kts 90°
2026-04-26 09:31 51.47751 -0.46888 96 ft 84 kts 90°
2026-04-26 09:31 51.47753 -0.46253 95 ft 45 kts 90°
2026-04-26 09:32 51.47752 -0.45777 92 ft 40 kts 90°
2026-04-26 09:32 51.47734 -0.45503 95 ft 15 kts 130°
2026-04-26 09:32 51.47657 -0.45469 94 ft 11 kts 180°
2026-04-26 09:32 51.47612 -0.45443 98 ft 4 kts 134°
2026-04-26 09:33 51.47604 -0.45425 94 ft 1 kts 118°
2026-04-26 09:33 51.47600 -0.45404 94 ft 3 kts 101°
2026-04-26 09:33 51.47596 -0.45356 96 ft 5 kts 91°
2026-04-26 09:33 51.47595 -0.45262 97 ft 11 kts 91°
2026-04-26 09:34 51.47593 -0.45109 95 ft 16 kts 89°
2026-04-26 09:34 51.47598 -0.44909 94 ft 20 kts 89°
2026-04-26 09:34 51.47597 -0.44716 94 ft 8 kts 105°
2026-04-26 09:34 51.47551 -0.44662 96 ft 11 kts 169°
2026-04-26 09:35 51.47494 -0.44586 96 ft 12 kts 136°
2026-04-26 09:35 51.47437 -0.44556 95 ft 5 kts 155°
2026-04-26 09:35 51.47416 -0.44504 96 ft 7 kts 98°
2026-04-26 09:35 51.47415 -0.44431 96 ft 4 kts 89°
2026-04-26 09:36 51.47415 -0.44427 95 ft 0 kts 89°